Location: Zagreb
(45.8150°N, 15.9819°E)
Time: 14:21:30
(UTC+02:00)

STARLINK-1662 - Pass Details

Date: 21 September 2020
Orbit: 378 x 381 km, 53.0° (Epoch: 20 October)

Event Time Altitude Azimuth Distance (km) Brightness Sun altitude
Exits shadow 04:50:41 25° 342° (NNW) 832 4.5 -19.7°
Maximum altitude 04:50:52 25° 348° (NNW) 828 4.6 -19.7°
Drops below altitude 10° 04:53:32 10° 46° (NE) 1,406 6.7 -19.3°
Sets 04:55:50 0° 61° (ENE) 2,261 8.4 -18.9°
